Regional Weather Roundup
Issued by NWS

Home | Current Version | Previous Version | Graphics & Text | Print | Product List | Glossary On
Versions: 1 2 3 4 5 6 7 8 9 10 11 12 13 14 15 16 17 18 19 20 21 22 23 24 25 26 27 28 29 30 31 32 33 34 35 36 37 38 39 40 41 42 43 44 45 46 47 48 49 50
000
ASUS43 KFSD 300710
RWRSD

WEATHER ROUNDUP FOR SOUTH DAKOTA
NATIONAL WEATHER SERVICE SIOUX FALLS SD
200 AM CDT TUE SEP 30 2014

NOTE: "FAIR" INDICATES FEW OR NO CLOUDS BELOW 12,000 FEET WITH NO
SIGNIFICANT WEATHER AND/OR OBSTRUCTIONS TO VISIBILITY.


SDZ001>005-009-010-012>017-300800-
NORTHWEST AND NORTH CENTRAL SOUTH DAKOTA

CITY           SKY/WX    TMP DP  RH WIND       PRES   REMARKS
BUFFALO          N/A     53  53 100 E10       29.73F
FAITH            N/A     55  54  96 E12       29.79F
MOBRIDGE       MOCLDY    56  51  84 E23G29    29.82F
$$

SDZ012>016-024>037-041>051-057-063-072>074-300800-
SOUTHWEST AND SOUTH CENTRAL SOUTH DAKOTA

CITY           SKY/WX    TMP DP  RH WIND       PRES   REMARKS
RAPID CTY ARPT RAIN      53  52  96 NW10      29.73F FOG
PIERRE         MOCLDY    59  56  89 SE22G32   29.77F
CUSTER         RAIN      48  47  96 NE12      29.73F FOG
ELLSWORTH AFB  HVY RAIN  52  52 100 N13       29.72  FOG
PHILIP         CLOUDY    62  59  90 E17       29.68F
PINE RIDGE     LGT RAIN  58  56  93 E15       29.63F
WINNER         FAIR      65  60  84 SE22G31   29.77F
$$

SDZ004>011-016>023-039-040-300800-
NORTHEAST SOUTH DAKOTA

CITY           SKY/WX    TMP DP  RH WIND       PRES   REMARKS
ABERDEEN       CLEAR     51  47  86 E8        29.94F
WATERTOWN      MOCLDY    50  45  83 SE12G21   29.98F
SISSETON         N/A     48  46  93 SE10      30.00F
$$

SDZ017-020-022-023-036>040-048>070-300800-
SOUTHEAST SOUTH DAKOTA

CITY           SKY/WX    TMP DP  RH WIND       PRES   REMARKS
SIOUX FALLS    MOCLDY    54  50  86 E14       29.97F
HURON          MOCLDY    54  49  83 SE17      29.91F
CHAMBERLAIN    CLOUDY    59  56  92 SE21G26   29.82F
MITCHELL       MOCLDY    58  53  84 SE17G29   29.91F
YANKTON        CLOUDY    59  55  88 E13       29.93F
$$

ABBREVIATIONS USED IN REMARKS
   TC - TEMPERATURE IN CELSIUS
  WCI - WIND CHILL INDEX
   HX - HEAT INDEX
  VSB - VISIBILITY




USA.gov is the U.S. government's official web portal to all federal, state and local government web resources and services.